TimeEDT,TemperatureF,Dew PointF,Humidity,Sea Level PressureIn,VisibilityMPH,Wind Direction,Wind SpeedMPH,Gust SpeedMPH,PrecipitationIn,Events,Conditions,WindDirDegrees,DateUTC
12:53 AM,73.0,72.0,96,30.07,1.5,Calm,Calm,-,N/A,,Partly Cloudy,0,2013-08-23 04:53:00
12:56 AM,71.6,71.6,100,30.08,0.8,Calm,Calm,-,N/A,,Mist,0,2013-08-23 04:56:00
1:07 AM,71.6,71.6,100,30.07,1.2,Calm,Calm,-,N/A,,Partly Cloudy,0,2013-08-23 05:07:00
1:12 AM,71.6,71.6,100,30.07,0.8,Calm,Calm,-,N/A,,Mist,0,2013-08-23 05:12:00
1:24 AM,71.6,71.6,100,30.07,1.2,Calm,Calm,-,N/A,,Partly Cloudy,0,2013-08-23 05:24:00
1:35 AM,71.6,71.6,100,30.07,2.0,Calm,Calm,-,N/A,,Partly Cloudy,0,2013-08-23 05:35:00
1:42 AM,71.6,71.6,100,30.07,1.8,Calm,Calm,-,N/A,,Partly Cloudy,0,2013-08-23 05:42:00
1:46 AM,71.6,71.6,100,30.07,3.0,Calm,Calm,-,N/A,,Partly Cloudy,0,2013-08-23 05:46:00
1:53 AM,72.0,72.0,100,30.06,5.0,Calm,Calm,-,N/A,,Partly Cloudy,0,2013-08-23 05:53:00
2:02 AM,71.6,71.6,100,30.07,1.8,Calm,Calm,-,N/A,,Mostly Cloudy,0,2013-08-23 06:02:00
2:13 AM,71.6,71.6,100,30.07,0.5,Calm,Calm,-,N/A,Fog,Fog,0,2013-08-23 06:13:00
2:24 AM,71.6,71.6,100,30.07,0.2,Calm,Calm,-,N/A,Fog,Fog,0,2013-08-23 06:24:00
2:37 AM,71.6,71.6,100,30.06,0.8,Calm,Calm,-,N/A,,Mist,0,2013-08-23 06:37:00
2:46 AM,71.6,71.6,100,30.06,1.0,Calm,Calm,-,N/A,,Mist,0,2013-08-23 06:46:00
2:53 AM,70.0,70.0,100,30.05,0.8,Calm,Calm,-,N/A,,Mist,0,2013-08-23 06:53:00
3:12 AM,71.6,71.6,100,30.06,2.0,Calm,Calm,-,N/A,,Mostly Cloudy,0,2013-08-23 07:12:00
3:20 AM,69.8,69.8,100,30.05,0.8,Calm,Calm,-,N/A,,Mist,0,2013-08-23 07:20:00
3:46 AM,69.8,69.8,100,30.05,1.0,Calm,Calm,-,N/A,,Mist,0,2013-08-23 07:46:00
3:53 AM,70.0,70.0,100,30.04,0.8,Calm,Calm,-,N/A,,Mist,0,2013-08-23 07:53:00
3:59 AM,69.8,69.8,100,30.04,1.2,Calm,Calm,-,N/A,,Scattered Clouds,0,2013-08-23 07:59:00
4:04 AM,69.8,69.8,100,30.04,3.0,Calm,Calm,-,N/A,,Partly Cloudy,0,2013-08-23 08:04:00
4:09 AM,69.8,69.8,100,30.04,1.8,Calm,Calm,-,N/A,,Partly Cloudy,0,2013-08-23 08:09:00
4:24 AM,69.8,69.8,100,30.04,3.0,Calm,Calm,-,N/A,,Mostly Cloudy,0,2013-08-23 08:24:00
4:53 AM,69.1,69.1,100,30.03,1.5,Calm,Calm,-,N/A,,Partly Cloudy,0,2013-08-23 08:53:00
4:59 AM,69.8,69.8,100,30.03,3.0,Calm,Calm,-,N/A,,Clear,0,2013-08-23 08:59:00
5:07 AM,69.8,69.8,100,30.03,2.5,Calm,Calm,-,N/A,,Partly Cloudy,0,2013-08-23 09:07:00
5:14 AM,69.8,69.8,100,30.03,1.2,Calm,Calm,-,N/A,,Mostly Cloudy,0,2013-08-23 09:14:00
5:28 AM,69.8,69.8,100,30.03,0.5,Calm,Calm,-,N/A,Fog,Fog,0,2013-08-23 09:28:00
5:42 AM,69.8,69.8,100,30.04,1.5,Calm,Calm,-,N/A,,Overcast,0,2013-08-23 09:42:00
5:53 AM,70.0,70.0,100,30.03,1.0,Calm,Calm,-,N/A,,Overcast,0,2013-08-23 09:53:00
6:00 AM,69.8,69.8,100,30.04,0.8,Calm,Calm,-,N/A,,Mist,0,2013-08-23 10:00:00
6:32 AM,69.8,69.8,100,30.04,2.0,Calm,Calm,-,N/A,,Overcast,0,2013-08-23 10:32:00
6:45 AM,69.8,69.8,100,30.04,0.8,Calm,Calm,-,N/A,,Mist,0,2013-08-23 10:45:00
6:53 AM,69.1,69.1,100,30.03,1.0,Calm,Calm,-,N/A,,Mist,0,2013-08-23 10:53:00
7:00 AM,69.8,69.8,100,30.04,3.0,Calm,Calm,-,N/A,,Mostly Cloudy,0,2013-08-23 11:00:00
7:15 AM,69.8,69.8,100,30.05,7.0,Calm,Calm,-,N/A,,Scattered Clouds,0,2013-08-23 11:15:00
7:20 AM,69.8,69.8,100,30.05,1.8,Calm,Calm,-,N/A,,Partly Cloudy,0,2013-08-23 11:20:00
7:31 AM,69.8,69.8,100,30.05,3.0,Calm,Calm,-,N/A,,Clear,0,2013-08-23 11:31:00
7:53 AM,72.0,72.0,100,30.05,9.0,Calm,Calm,-,N/A,,Clear,0,2013-08-23 11:53:00
8:53 AM,75.9,73.0,91,30.06,10.0,Calm,Calm,-,N/A,,Clear,0,2013-08-23 12:53:00
9:53 AM,78.1,73.0,84,30.06,10.0,North,3.5,-,N/A,,Clear,10,2013-08-23 13:53:00
10:53 AM,82.0,73.9,76,30.08,10.0,Calm,Calm,-,N/A,,Clear,0,2013-08-23 14:53:00
11:39 AM,82.4,71.6,70,30.08,10.0,WNW,3.5,-,N/A,,Mostly Cloudy,290,2013-08-23 15:39:00
11:53 AM,87.1,73.9,65,30.07,10.0,Variable,3.5,-,N/A,,Mostly Cloudy,0,2013-08-23 15:53:00
12:19 PM,84.2,71.6,66,30.07,10.0,Calm,Calm,-,N/A,,Scattered Clouds,0,2013-08-23 16:19:00
12:53 PM,86.0,71.1,61,30.05,10.0,Calm,Calm,-,N/A,,Clear,0,2013-08-23 16:53:00
1:53 PM,87.1,71.1,59,30.03,10.0,East,4.6,-,N/A,,Partly Cloudy,90,2013-08-23 17:53:00
2:53 PM,87.1,71.1,59,30.00,10.0,Calm,Calm,-,N/A,,Partly Cloudy,0,2013-08-23 18:53:00
3:53 PM,91.0,69.1,48,30.00,10.0,ENE,3.5,-,N/A,,Partly Cloudy,60,2013-08-23 19:53:00
4:53 PM,89.1,69.1,52,30.00,10.0,Calm,Calm,-,N/A,,Partly Cloudy,0,2013-08-23 20:53:00
5:53 PM,82.9,72.0,69,30.01,10.0,South,10.4,-,N/A,,Partly Cloudy,170,2013-08-23 21:53:00
6:53 PM,81.0,72.0,74,30.02,10.0,South,10.4,-,N/A,,Clear,190,2013-08-23 22:53:00
7:53 PM,75.9,72.0,87,30.02,10.0,SSW,6.9,-,N/A,,Clear,210,2013-08-23 23:53:00
8:53 PM,75.0,71.1,87,30.04,10.0,Calm,Calm,-,N/A,,Clear,0,2013-08-24 00:53:00
9:53 PM,73.0,71.1,93,30.04,10.0,Calm,Calm,-,N/A,,Clear,0,2013-08-24 01:53:00
10:53 PM,73.0,71.1,93,30.05,10.0,Calm,Calm,-,N/A,,Clear,0,2013-08-24 02:53:00
11:53 PM,73.0,71.1,93,30.05,10.0,Calm,Calm,-,N/A,,Clear,0,2013-08-24 03:53:00